Fountain Dale, PA

1:55 AM EDT on September 26, 2017 (GMT -0400)
Fountain Dale

Weather History for KRYT - August, 2012

Change the Weather History Date:

Friday, August 31, 2012

  Actual Average (KHGR) Record (KHGR)
Temperature  
Mean Temperature 77 °F -  
Max Temperature 91 °F 79 °F 96 °F (2010)
Min Temperature 64 °F 60 °F 48 °F (1999)
Cooling Degree Days 12    
Growing Degree Days 27 (Base 50)    
Moisture  
Dew Point 62 °F    
Average Humidity 63    
Maximum Humidity 84    
Minimum Humidity 40    
Precipitation  
Precipitation 0.01 in - - ()
Sea Level Pressure  
Sea Level Pressure 30.04 in    
Wind  
Wind Speed 1 mph (SW)    
Max Wind Speed 9 mph    
Max Gust Speed -    
Visibility 9 miles    
Events      
Averages and records for this station are not official NWS values.
T = Trace of Precipitation, MM = Missing Value Source: NWS Daily Summary

Daily Weather History Graph

Daily Weather History Graph

Search for Another Location

Airport or City:

Trip Planner

Search our weather history database for the weather conditions in past years. The results will help you decide how hot, cold, wet, or windy it might be!

Date:

Astronomy

Aug. 31, 2012 Rise Set
Actual Time 6:37 AM EDT 7:41 PM EDT
Civil Twilight 6:09 AM EDT 8:09 PM EDT
Nautical Twilight 5:36 AM EDT 8:42 PM EDT
Astronomical Twilight 5:02 AM EDT 9:16 PM EDT
Moon 7:27 PM EDT (8/31) 6:40 AM EDT (8/31)
Length of Visible Light 13h 59m
Length of Day
13h 04m
Full, 100% of the Moon is Illuminated
Aug 31
Full
Sep 8
Last Quarter
Sep 15
New
Sep 22
First Quarter
Sep 29
Full

Hourly Weather History & Observations

Time (EDT) Temp. Heat Index Dew Point Humidity Pressure Visibility Wind Dir Wind Speed Gust Speed Precip Events Conditions
12:53 AM 64.0 °F - 59.0 °F 84% 30.08 in 7.0 mi Calm Calm - N/A   Clear
1:53 AM 64.9 °F - 60.1 °F 84% 30.06 in 7.0 mi Calm Calm - N/A   Clear
2:53 AM 66.9 °F - 61.0 °F 81% 30.05 in 9.0 mi SSW 3.5 mph - N/A   Clear
3:53 AM 66.0 °F - 61.0 °F 84% 30.05 in 6.0 mi Calm Calm - N/A   Haze
4:53 AM 66.9 °F - 62.1 °F 84% 30.06 in 7.0 mi Calm Calm - N/A   Clear
6:53 AM 66.0 °F - 61.0 °F 84% 30.09 in 3.0 mi Calm Calm - N/A   Haze
7:53 AM 69.1 °F - 62.1 °F 78% 30.10 in 8.0 mi Calm Calm - 0.01 in   Clear
8:53 AM 72.0 °F - 63.0 °F 73% 30.11 in 10.0 mi Calm Calm - N/A   Clear
9:53 AM 75.9 °F - 64.0 °F 67% 30.10 in 10.0 mi Calm Calm - N/A   Clear
10:53 AM 82.0 °F 82.4 °F 60.1 °F 47% 30.10 in 10.0 mi Calm Calm - N/A   Clear
11:53 AM 82.9 °F 82.8 °F 59.0 °F 44% 30.08 in 10.0 mi Calm Calm - N/A   Clear
12:53 PM 84.9 °F 84.8 °F 60.1 °F 43% 30.06 in 10.0 mi SW 9.2 mph - N/A   Clear
1:53 PM 86.0 °F 85.7 °F 60.1 °F 41% 30.04 in 10.0 mi Calm Calm - N/A   Clear
2:53 PM 88.0 °F 87.9 °F 61.0 °F 40% 30.01 in 10.0 mi Variable 3.5 mph - N/A   Clear
3:53 PM 89.1 °F 90.0 °F 63.0 °F 42% 30.00 in 10.0 mi Variable 5.8 mph - N/A   Clear
4:53 PM 90.0 °F 90.6 °F 63.0 °F 40% 29.99 in 10.0 mi WSW 3.5 mph - N/A   Clear
5:53 PM 90.0 °F 90.6 °F 63.0 °F 40% 29.98 in 10.0 mi Variable 3.5 mph - N/A   Clear
6:53 PM 81.0 °F 84.1 °F 69.1 °F 67% 29.99 in 10.0 mi Calm Calm - N/A   Clear
7:53 PM 73.9 °F - 66.0 °F 76% 29.99 in 10.0 mi Calm Calm - N/A   Clear
8:53 PM 75.9 °F - 63.0 °F 64% 30.00 in 10.0 mi Variable 3.5 mph - N/A   Clear
9:53 PM 82.0 °F 83.0 °F 62.1 °F 51% 29.99 in 10.0 mi Variable 4.6 mph - N/A   Clear
10:53 PM 73.0 °F - 64.9 °F 76% 30.00 in 10.0 mi Calm Calm - N/A   Clear
11:53 PM 75.0 °F - 64.0 °F 69% 30.01 in 10.0 mi SSW 3.5 mph - N/A   Clear